| time (UTC) | temp C | wind direction | speed KPH | gust KPH | rain 1hr cm | rain 24hr cm | rain mn cm | humidity % | barometer mb |
| 20260509101546 | 7 | 236 | 1.6 | 11.3 | 0.00 | 0.23 | 0.00 | 61 | 1005.0 |
| 20260509100052 | 7 | 236 | 1.6 | 4.8 | 0.00 | 0.23 | 0.00 | 64 | 1005.1 |
| 20260509094542 | 7 | 236 | 0.0 | 4.8 | 0.00 | 0.23 | 0.00 | 63 | 1004.9 |
| 20260509093041 | 7 | 236 | 0.0 | 12.9 | 0.00 | 0.23 | 0.00 | 61 | 1005.0 |
| 20260509091540 | 7 | 237 | 3.2 | 12.9 | 0.00 | 0.23 | 0.00 | 62 | 1005.0 |
| 20260509090037 | 7 | 242 | 3.2 | 14.5 | 0.00 | 0.23 | 0.00 | 62 | 1005.2 |
| 20260509084535 | 7 | 244 | 8.0 | 16.1 | 0.00 | 0.23 | 0.00 | 62 | 1005.4 |
| 20260509083035 | 7 | 226 | 4.8 | 14.5 | 0.00 | 0.23 | 0.00 | 63 | 1005.5 |
| 20260509081540 | 6 | 215 | 8.0 | 19.3 | 0.00 | 0.23 | 0.00 | 64 | 1005.6 |
| 20260509080025 | 6 | 252 | 6.4 | 17.7 | 0.00 | 0.23 | 0.00 | 69 | 1005.9 |
| 20260509074523 | 5 | 324 | 0.0 | 3.2 | 0.00 | 0.23 | 0.00 | 73 | 1006.0 |
| 20260509073021 | 5 | 325 | 0.0 | 0.0 | 0.00 | 0.23 | 0.00 | 73 | 1005.9 |
| 20260509071521 | 5 | 324 | 0.0 | 3.2 | 0.00 | 0.23 | 0.00 | 71 | 1006.0 |
| 20260509070019 | 5 | 324 | 0.0 | 4.8 | 0.00 | 0.23 | 0.00 | 71 | 1006.1 |
| 20260509064517 | 6 | 325 | 0.0 | 3.2 | 0.00 | 0.23 | 0.00 | 72 | 1006.3 |
| 20260509063014 | 5 | 325 | 0.0 | 6.4 | 0.00 | 0.23 | 0.00 | 70 | 1006.6 |
| 20260509061512 | 5 | 325 | 0.0 | 3.2 | 0.00 | 0.23 | 0.00 | 66 | 1006.8 |
| 20260509060012 | 6 | 325 | 0.0 | 1.6 | 0.00 | 0.23 | 0.00 | 64 | 1006.9 |
| 20260509054510 | 6 | 325 | 0.0 | 4.8 | 0.00 | 0.23 | 0.00 | 63 | 1007.2 |
| 20260509053008 | 6 | 325 | 0.0 | 4.8 | 0.00 | 0.23 | 0.00 | 65 | 1007.4 |
| 20260509051501 | 6 | 327 | 0.0 | 4.8 | 0.00 | 0.23 | 0.00 | 65 | 1007.5 |
| 20260509050101 | 6 | 327 | 0.0 | 0.0 | 0.00 | 0.23 | 0.00 | 63 | 1007.6 |
| 20260509044558 | 6 | 327 | 0.0 | 0.0 | 0.00 | 0.23 | 0.00 | 65 | 1007.8 |
| 20260509043102 | 6 | 327 | 0.0 | 0.0 | 0.00 | 0.23 | 0.00 | 66 | 1007.7 |
| 20260509041551 | 6 | 327 | 0.0 | 1.6 | 0.00 | 0.23 | 0.00 | 66 | 1007.8 |
| 20260509040053 | 6 | 327 | 0.0 | 0.0 | 0.00 | 0.23 | 0.00 | 65 | 1007.8 |
| 20260509034558 | 6 | 327 | 0.0 | 0.0 | 0.00 | 0.23 | 0.23 | 66 | 1007.9 |
| 20260509033048 | 6 | 327 | 0.0 | 0.0 | 0.00 | 0.23 | 0.23 | 63 | 1007.7 |
| 20260509031556 | 6 | 327 | 0.0 | 0.0 | 0.00 | 0.23 | 0.23 | 66 | 1007.9 |
| 20260509030046 | 6 | 327 | 0.0 | 0.0 | 0.00 | 0.23 | 0.23 | 66 | 1008.0 |
| 20260509024545 | 6 | 327 | 0.0 | 0.0 | 0.00 | 0.23 | 0.23 | 61 | 1008.0 |
| 20260509023054 | 6 | 327 | 0.0 | 0.0 | 0.00 | 0.23 | 0.23 | 66 | 1008.1 |
| 20260509021545 | 7 | 327 | 0.0 | 0.0 | 0.00 | 0.23 | 0.23 | 59 | 1008.2 |
| 20260509020049 | 7 | 327 | 0.0 | 0.0 | 0.00 | 0.23 | 0.23 | 63 | 1008.2 |
| 20260509014543 | 7 | 327 | 0.0 | 0.0 | 0.00 | 0.23 | 0.23 | 62 | 1008.1 |
| 20260509013105 | 8 | 327 | 0.0 | 0.0 | 0.00 | 0.23 | 0.23 | 64 | 1008.0 |
| 20260509011542 | 8 | 327 | 0.0 | 0.0 | 0.00 | 0.23 | 0.23 | 66 | 1007.9 |
| 20260509010042 | 8 | 327 | 0.0 | 0.0 | 0.00 | 0.23 | 0.23 | 65 | 1007.6 |
| 20260509004542 | 9 | 327 | 0.0 | 0.0 | 0.00 | 0.23 | 0.23 | 64 | 1007.4 |
| 20260509003041 | 10 | 327 | 0.0 | 3.2 | 0.00 | 0.23 | 0.23 | 56 | 1007.4 |
| 20260509001541 | 10 | 327 | 1.6 | 4.8 | 0.00 | 0.23 | 0.23 | 51 | 1007.2 |
| 20260509000040 | 11 | 327 | 1.6 | 8.0 | 0.00 | 0.23 | 0.23 | 50 | 1007.2 |
| 20260508234540 | 11 | 327 | 6.4 | 14.5 | 0.00 | 0.23 | 0.23 | 49 | 1007.2 |
| 20260508233039 | 11 | 322 | 4.8 | 14.5 | 0.00 | 0.23 | 0.23 | 50 | 1006.9 |
| 20260508231542 | 12 | 311 | 9.7 | 22.5 | 0.00 | 0.23 | 0.23 | 48 | 1006.8 |
| 20260508230051 | 12 | 290 | 8.0 | 20.9 | 0.00 | 0.23 | 0.23 | 51 | 1006.8 |
| 20260508224556 | 12 | 13 | 6.4 | 14.5 | 0.00 | 0.23 | 0.23 | 53 | 1006.7 |
| 20260508223036 | 12 | 314 | 6.4 | 16.1 | 0.00 | 0.23 | 0.23 | 55 | 1006.8 |
| 20260508221535 | 12 | 290 | 8.0 | 22.5 | 0.00 | 0.23 | 0.23 | 55 | 1006.7 |
| 20260508220034 | 12 | 315 | 6.4 | 9.7 | 0.00 | 0.23 | 0.23 | 55 | 1006.7 |
| 20260508214534 | 12 | 334 | 8.0 | 16.1 | 0.00 | 0.23 | 0.23 | 59 | 1006.7 |
| 20260508213032 | 12 | 334 | 11.3 | 17.7 | 0.00 | 0.23 | 0.23 | 55 | 1006.9 |
| 20260508211530 | 12 | 320 | 6.4 | 12.9 | 0.00 | 0.23 | 0.23 | 52 | 1007.0 |
| 20260508210032 | 12 | 339 | 8.0 | 16.1 | 0.00 | 0.23 | 0.23 | 56 | 1007.0 |
| 20260508204528 | 11 | 5 | 0.0 | 17.7 | 0.00 | 0.23 | 0.23 | 54 | 1007.1 |
| 20260508203027 | 12 | 357 | 8.0 | 17.7 | 0.00 | 0.23 | 0.23 | 58 | 1007.2 |
| 20260508201529 | 12 | 297 | 8.0 | 20.9 | 0.00 | 0.23 | 0.23 | 55 | 1007.4 |
| 20260508200022 | 12 | 294 | 12.9 | 24.1 | 0.00 | 0.23 | 0.23 | 58 | 1007.7 |
| 20260508194522 | 12 | 302 | 9.7 | 17.7 | 0.00 | 0.23 | 0.23 | 61 | 1007.7 |
| 20260508193039 | 11 | 334 | 6.4 | 17.7 | 0.00 | 0.23 | 0.23 | 59 | 1008.0 |
| 20260508191523 | 12 | 329 | 8.0 | 24.1 | 0.00 | 0.23 | 0.23 | 65 | 1008.2 |
| 20260508190030 | 11 | 261 | 8.0 | 24.1 | 0.00 | 0.23 | 0.23 | 61 | 1008.3 |
| 20260508184518 | 11 | 269 | 11.3 | 20.9 | 0.00 | 0.23 | 0.23 | 62 | 1008.4 |
| 20260508183017 | 10 | 323 | 11.3 | 20.9 | 0.00 | 0.23 | 0.23 | 62 | 1008.4 |
| 20260508181521 | 10 | 301 | 9.7 | 20.9 | 0.00 | 0.23 | 0.23 | 65 | 1008.4 |
| 20260508180014 | 9 | 250 | 8.0 | 22.5 | 0.00 | 0.23 | 0.23 | 61 | 1008.6 |
| 20260508174513 | 10 | 258 | 9.7 | 22.5 | 0.00 | 0.23 | 0.23 | 67 | 1008.8 |
| 20260508173011 | 10 | 285 | 16.1 | 24.1 | 0.00 | 0.23 | 0.23 | 68 | 1009.0 |
| 20260508171512 | 9 | 257 | 11.3 | 17.7 | 0.00 | 0.23 | 0.23 | 67 | 1009.2 |
| 20260508170007 | 8 | 325 | 11.3 | 19.3 | 0.00 | 0.23 | 0.23 | 65 | 1009.2 |
| 20260508164504 | 7 | 258 | 4.8 | 16.1 | 0.00 | 0.23 | 0.23 | 62 | 1009.4 |
| 20260508163003 | 7 | 344 | 1.6 | 19.3 | 0.00 | 0.23 | 0.23 | 62 | 1009.3 |
| 20260508161503 | 7 | 263 | 9.7 | 14.5 | 0.00 | 0.23 | 0.23 | 61 | 1009.6 |
| 20260508154559 | 6 | 285 | 4.8 | 14.5 | 0.00 | 0.23 | 0.23 | 58 | 1009.8 |
| 20260508153059 | 6 | 262 | 1.6 | 11.3 | 0.00 | 0.23 | 0.23 | 57 | 1009.7 |
| 20260508151558 | 5 | 260 | 8.0 | 14.5 | 0.00 | 0.23 | 0.23 | 53 | 1009.7 |
| 20260508150053 | 5 | 334 | 1.6 | 6.4 | 0.00 | 0.23 | 0.23 | 51 | 1009.6 |
| 20260508144551 | 5 | 334 | 1.6 | 8.0 | 0.00 | 0.23 | 0.23 | 50 | 1009.7 |
| 20260508143051 | 4 | 334 | 0.0 | 6.4 | 0.03 | 0.23 | 0.23 | 51 | 1009.5 |
| 20260508141549 | 4 | 334 | 0.0 | 6.4 | 0.03 | 0.23 | 0.23 | 50 | 1009.1 |
| 20260508140048 | 4 | 334 | 0.0 | 4.8 | 0.03 | 0.23 | 0.23 | 50 | 1009.1 |
| 20260508134547 | 4 | 334 | 1.6 | 6.4 | 0.05 | 0.23 | 0.23 | 51 | 1009.2 |
| 20260508133102 | 3 | 329 | 8.0 | 12.9 | 0.08 | 0.20 | 0.20 | 52 | 1009.6 |
| 20260508131544 | 3 | 339 | 4.8 | 16.1 | 0.10 | 0.20 | 0.20 | 53 | 1009.6 |
| 20260508130042 | 3 | 317 | 6.4 | 14.5 | 0.10 | 0.18 | 0.18 | 53 | 1009.4 |
| 20260508124541 | 3 | 287 | 4.8 | 12.9 | 0.10 | 0.18 | 0.18 | 55 | 1009.3 |
| 20260508123040 | 3 | 275 | 3.2 | 11.3 | 0.08 | 0.13 | 0.13 | 55 | 1009.2 |
| 20260508121537 | 3 | 275 | 4.8 | 11.3 | 0.08 | 0.10 | 0.10 | 55 | 1009.0 |
| 20260508120035 | 3 | 278 | 4.8 | 16.1 | 0.05 | 0.08 | 0.08 | 57 | 1008.5 |
| 20260508114533 | 3 | 279 | 9.7 | 17.7 | 0.08 | 0.08 | 0.08 | 58 | 1008.5 |
| 20260508113036 | 3 | 290 | 11.3 | 17.7 | 0.05 | 0.05 | 0.05 | 59 | 1008.4 |
| 20260508111532 | 3 | 286 | 4.8 | 12.9 | 0.03 | 0.03 | 0.03 | 59 | 1008.1 |
| 20260508110032 | 3 | 279 | 3.2 | 6.4 | 0.03 | 0.03 | 0.03 | 60 | 1007.8 |
| 20260508104529 | 3 | 278 | 6.4 | 14.5 | 0.00 | 0.00 | 0.00 | 59 | 1007.7 |
| 20260508103029 | 3 | 270 | 3.2 | 12.9 | 0.00 | 0.00 | 0.00 | 58 | 1007.8 |